Météo par heure à Jurki

Ce jour, 17 Juin, Jeudi

Heure Température Précipitation Vent Pression Humidité
00:00 +13°C° 0 mm 2 m/s 756 mmHg 86%
01:00 +13°C° 0 mm 2 m/s 756 mmHg 88%
02:00 +13°C° 0 mm 2 m/s 756 mmHg 88%
03:00 +13°C° 0 mm 2 m/s 756 mmHg 88%
04:00 +13°C° 0 mm 2 m/s 756 mmHg 88%
05:00 +15°C° 0 mm 2 m/s 757 mmHg 82%
06:00 +17°C° 0 mm 2 m/s 757 mmHg 75%
07:00 +19°C° 0 mm 3 m/s 757 mmHg 69%
08:00 +20°C° 0 mm 3 m/s 757 mmHg 64%
09:00 +22°C° 0 mm 3 m/s 757 mmHg 59%
10:00 +23°C° 0 mm 4 m/s 758 mmHg 54%
11:00 +25°C° 0 mm 4 m/s 757 mmHg 51%
12:00 +26°C° 0 mm 3 m/s 757 mmHg 48%
13:00 +26°C° 0 mm 3 m/s 757 mmHg 45%
14:00 +26°C° 0 mm 3 m/s 757 mmHg 47%
15:00 +26°C° 0 mm 3 m/s 757 mmHg 48%
16:00 +26°C° 0 mm 3 m/s 757 mmHg 49%
17:00 +25°C° 0 mm 3 m/s 757 mmHg 57%
18:00 +24°C° 0 mm 2 m/s 757 mmHg 65%
19:00 +23°C° 0 mm 2 m/s 757 mmHg 72%
20:00 +20°C° 0 mm 2 m/s 757 mmHg 76%
21:00 +19°C° 0 mm 2 m/s 757 mmHg 79%
22:00 +17°C° 0 mm 3 m/s 757 mmHg 83%
23:00 +17°C° 0 mm 3 m/s 757 mmHg 84%

Demain, 18 Juin, Vendredi

Heure Température Précipitation Vent Pression Humidité
00:00 +16°C° 0 mm 3 m/s 757 mmHg 86%
01:00 +16°C° 0 mm 2 m/s 757 mmHg 88%
02:00 +16°C° 0 mm 3 m/s 757 mmHg 88%
03:00 +16°C° 0 mm 3 m/s 757 mmHg 89%
04:00 +16°C° 0 mm 3 m/s 757 mmHg 89%
05:00 +18°C° 0 mm 3 m/s 757 mmHg 83%
06:00 +20°C° 0 mm 3 m/s 757 mmHg 78%
07:00 +22°C° 0 mm 3 m/s 757 mmHg 73%
08:00 +23°C° 0 mm 4 m/s 757 mmHg 68%
09:00 +26°C° 0 mm 4 m/s 757 mmHg 63%
10:00 +27°C° 0 mm 5 m/s 757 mmHg 58%
11:00 +27°C° 0 mm 5 m/s 757 mmHg 56%
12:00 +28°C° 0 mm 5 m/s 756 mmHg 54%
13:00 +28°C° 0 mm 4 m/s 756 mmHg 52%
14:00 +28°C° 0 mm 4 m/s 756 mmHg 53%
15:00 +28°C° 0 mm 4 m/s 756 mmHg 53%
16:00 +28°C° 0 mm 4 m/s 756 mmHg 54%
17:00 +27°C° 0 mm 3 m/s 756 mmHg 60%
18:00 +25°C° 0 mm 3 m/s 756 mmHg 67%
19:00 +24°C° 0 mm 3 m/s 755 mmHg 74%
20:00 +21°C° 0 mm 3 m/s 756 mmHg 78%
21:00 +20°C° 0 mm 3 m/s 756 mmHg 82%
22:00 +19°C° 0 mm 3 m/s 756 mmHg 86%
23:00 +18°C° 0 mm 3 m/s 756 mmHg 87%

Après-demain, 19 Juin, Samedi

Heure Température Précipitation Vent Pression Humidité
00:00 +18°C° 0 mm 3 m/s 756 mmHg 87%
01:00 +18°C° 0 mm 3 m/s 756 mmHg 88%
02:00 +17°C° 0 mm 3 m/s 756 mmHg 88%
03:00 +17°C° 0 mm 3 m/s 756 mmHg 88%
04:00 +17°C° 0 mm 3 m/s 756 mmHg 89%
05:00 +19°C° 0 mm 3 m/s 756 mmHg 84%
06:00 +21°C° 0 mm 3 m/s 756 mmHg 80%
07:00 +23°C° 0 mm 4 m/s 756 mmHg 76%
08:00 +25°C° 0 mm 4 m/s 756 mmHg 72%
09:00 +27°C° 0 mm 4 m/s 756 mmHg 67%
10:00 +28°C° 0 mm 5 m/s 755 mmHg 63%
11:00 +28°C° 0 mm 5 m/s 755 mmHg 60%
12:00 +29°C° 0 mm 5 m/s 755 mmHg 57%
13:00 +30°C° 0 mm 5 m/s 755 mmHg 54%
14:00 +30°C° 0 mm 4 m/s 754 mmHg 55%
15:00 +30°C° 0 mm 4 m/s 754 mmHg 56%
16:00 +30°C° 0 mm 4 m/s 754 mmHg 57%
17:00 +28°C° 0 mm 3 m/s 754 mmHg 64%
18:00 +27°C° 0 mm 3 m/s 754 mmHg 70%
19:00 +25°C° 0 mm 3 m/s 754 mmHg 77%
20:00 +24°C° 0 mm 3 m/s 754 mmHg 80%
21:00 +22°C° 0 mm 3 m/s 754 mmHg 84%
22:00 +21°C° 0 mm 3 m/s 754 mmHg 87%
23:00 +20°C° 0 mm 3 m/s 754 mmHg 89%

20 Juin, Dimanche

Heure Température Précipitation Vent Pression Humidité
00:00 +20°C° 0 mm 3 m/s 754 mmHg 90%
01:00 +19°C° 0 mm 2 m/s 754 mmHg 91%
02:00 +19°C° 0 mm 2 m/s 754 mmHg 92%
03:00 +19°C° 0 mm 2 m/s 754 mmHg 92%
04:00 +19°C° 0 mm 2 m/s 754 mmHg 92%
05:00 +20°C° 0 mm 3 m/s 754 mmHg 86%
06:00 +22°C° 0 mm 3 m/s 754 mmHg 80%
07:00 +24°C° 0 mm 3 m/s 754 mmHg 74%
08:00 +25°C° 0 mm 4 m/s 754 mmHg 70%
09:00 +27°C° 0 mm 4 m/s 754 mmHg 66%
10:00 +28°C° 0 mm 5 m/s 753 mmHg 61%
11:00 +28°C° 0.1 mm 5 m/s 753 mmHg 59%
12:00 +28°C° 0.1 mm 4 m/s 753 mmHg 57%
13:00 +29°C° 0.1 mm 4 m/s 752 mmHg 55%
14:00 +28°C° 0 mm 4 m/s 752 mmHg 58%
15:00 +28°C° 0 mm 4 m/s 752 mmHg 61%
16:00 +27°C° 0 mm 4 m/s 752 mmHg 65%
17:00 +26°C° 0 mm 3 m/s 752 mmHg 69%
18:00 +26°C° 0 mm 3 m/s 751 mmHg 73%
19:00 +25°C° 0 mm 3 m/s 751 mmHg 77%
20:00 +24°C° 0 mm 3 m/s 751 mmHg 80%
21:00 +22°C° 0 mm 3 m/s 751 mmHg 84%
22:00 +21°C° 0 mm 3 m/s 751 mmHg 88%
23:00 +20°C° 0 mm 3 m/s 751 mmHg 90%

21 Juin, Lundi

Heure Température Précipitation Vent Pression Humidité
00:00 +20°C° 0 mm 3 m/s 751 mmHg 92%
01:00 +19°C° 0 mm 3 m/s 751 mmHg 94%
02:00 +19°C° 0 mm 3 m/s 751 mmHg 94%
03:00 +19°C° 0 mm 3 m/s 751 mmHg 94%
04:00 +19°C° 0 mm 3 m/s 751 mmHg 94%
05:00 +21°C° 0 mm 4 m/s 751 mmHg 87%
06:00 +22°C° 0 mm 4 m/s 751 mmHg 81%
07:00 +25°C° 0 mm 5 m/s 750 mmHg 74%
08:00 +26°C° 0 mm 5 m/s 750 mmHg 68%
09:00 +27°C° 0 mm 6 m/s 750 mmHg 62%
10:00 +28°C° 0 mm 6 m/s 750 mmHg 56%
11:00 +29°C° 0 mm 6 m/s 750 mmHg 54%
12:00 +29°C° 0 mm 6 m/s 750 mmHg 52%
13:00 +30°C° 0 mm 6 m/s 750 mmHg 49%
14:00 +30°C° 0 mm 5 m/s 749 mmHg 51%
15:00 +30°C° 0 mm 5 m/s 749 mmHg 53%
16:00 +30°C° 0 mm 4 m/s 749 mmHg 55%
17:00 +28°C° 0 mm 4 m/s 749 mmHg 62%
18:00 +27°C° 0 mm 3 m/s 749 mmHg 68%
19:00 +26°C° 0 mm 3 m/s 748 mmHg 75%
20:00 +25°C° 0 mm 3 m/s 748 mmHg 77%
21:00 +24°C° 0 mm 2 m/s 748 mmHg 79%
22:00 +23°C° 0 mm 2 m/s 748 mmHg 81%
23:00 +23°C° 0 mm 2 m/s 748 mmHg 80%

22 Juin, Mardi

Heure Température Précipitation Vent Pression Humidité
00:00 +23°C° 0 mm 2 m/s 748 mmHg 79%
01:00 +23°C° 0 mm 2 m/s 748 mmHg 79%
02:00 +21°C° 0 mm 2 m/s 748 mmHg 82%
03:00 +20°C° 0 mm 2 m/s 748 mmHg 86%
04:00 +20°C° 0 mm 2 m/s 748 mmHg 90%
05:00 +21°C° 0 mm 3 m/s 748 mmHg 85%
06:00 +23°C° 0 mm 4 m/s 748 mmHg 80%
07:00 +25°C° 0 mm 4 m/s 748 mmHg 74%
08:00 +27°C° 0 mm 4 m/s 748 mmHg 69%
09:00 +28°C° 0 mm 5 m/s 748 mmHg 65%
10:00 +29°C° 0 mm 5 m/s 748 mmHg 60%
11:00 +29°C° 0.5 mm 5 m/s 748 mmHg 60%
12:00 +30°C° 0.5 mm 5 m/s 748 mmHg 59%
13:00 +30°C° 0.5 mm 5 m/s 748 mmHg 59%
14:00 +30°C° 0.1 mm 4 m/s 747 mmHg 59%
15:00 +30°C° 0.1 mm 4 m/s 747 mmHg 60%
16:00 +30°C° 0.1 mm 4 m/s 747 mmHg 61%
17:00 +28°C° 1.1 mm 5 m/s 747 mmHg 70%
18:00 +25°C° 1.1 mm 5 m/s 748 mmHg 80%
19:00 +22°C° 1.1 mm 6 m/s 748 mmHg 90%
20:00 +21°C° 0.7 mm 4 m/s 749 mmHg 92%
21:00 +21°C° 0.7 mm 3 m/s 749 mmHg 93%
22:00 +21°C° 0.7 mm 1 m/s 749 mmHg 95%
23:00 +21°C° 0.2 mm 1 m/s 749 mmHg 95%
Voir plus

Nous avons besoin de votre consentement

Meteoprog et ses fournisseurs de services peuvent stocker et accéder à des données personnelles telles que des cookies, des identifiants d'appareils ou d'autres technologies similaires sur votre appareil et traiter ces données pour personnaliser le contenu et les publicités, ainsi que pour fournir des fonctionnalités de médias sociaux et analyser le trafic.

  • Stocker et/ou accéder à des informations sur votre appareil

    Des cookies, des identifiants d'appareils ou d'autres informations peuvent être stockés ou accessibles sur votre appareil aux fins indiquées ci-dessus.

  • Annonces et contenus personnalisés, mesure des annonces et des contenus, connaissance de l'audience et développement de produits

    Les annonces et le contenu peuvent être personnalisés en fonction d'un profil. D'autres données peuvent être ajoutées pour mieux personnaliser les annonces et le contenu. Les performances des publicités et du contenu peuvent être mesurées. Il est possible d'obtenir des informations sur le public qui a vu les publicités et le contenu. Ces données peuvent être utilisées pour développer ou améliorer l'expérience de l'utilisateur, les systèmes et les logiciels.

En cliquant sur "J'accepte", vous autorisez l'utilisation de cookies, des identifiants d'appareils, des balises web ou d'autres technologies similaires. Vos paramètres peuvent être modifiés dans le navigateur de votre appareil.

Dans certains cas, des intérêts légitimes peuvent être invoqués plutôt qu'un consentement. Vous pouvez en savoir plus à ce sujet dans notre Politique de confidentialité et de cookies.